User: anonymous   Login
Location: Stonelick Lake State Park
(39.2170°N, 84.0850°W)
Time: 17:27:27
(UTC-05:00)
Language:

Lacrosse 5 - Orbit

View from above orbital plane
View from above orbital plane
View from above satellite
View from above satellite

Ground track
Ground track

The orbit data is extracted from the following two-line orbital elements,

1 28646U 05016A   15023.24612358 0.00000000  00000-0  00000-0 0    03
2 28646  57.0090 155.2269 0006000  69.4939 290.5060 14.52010041    05
Epoch (UTC): 23 January 2015 05:54:25
Eccentricity: 0.0006000
inclination: 57.0090°
perigee height: 715 km
apogee height: 723 km
right ascension of ascending node: 155.2269°
argument of perigee: 69.4939°
revolutions per day: 14.52010041
mean anomaly at epoch: 290.5060°
orbit number at epoch: 0

The dashed part of the orbit path shows where the satellite is in the earth's shadow,  

DLR